Location: Makanda
(37.6176°N, 89.2090°W)
Time: 15:00:49
(UTC+00:00)

Atlas Centaur 2 - Pass Details

Date: 23 September 2019
Orbit: 459 x 1311 km, 30.4° (Epoch: 16 October)

Event Time Altitude Azimuth Distance (km) Brightness Sun altitude
Exits shadow 09:10:38 22° 155° (SSE) 1,992 4.1 -30.4°
Drops below altitude 10° 09:13:45 10° 136° (SE) 2,868 5.1 -29.9°
Sets 09:17:08 0° 126° (SE) 3,963 6.0 -29.2°
